Kezdőlap
METAR-TAF:

METAR-TAF

Repülőterek :

Windom Municipal Airport

Windom, Minnesota, Amerikai Egyesült Államok

földrajzi szélesség: 43-54-48N, földrajzi hosszúság: 095-06-34W, magasság: 430 m

Jelenlegi meteorológiai megfigyelések

A jelentés 17 perccel ezelõtt készült, 21:15 UTC
Szélcsend
Hőmérséklet 20°C
Páratartalom 32%
Légköri nyomás 1024 hPa
Látótávolság: 16.1 km
Derült ég

METAR: KMWM 222115Z AUTO 00000KT 10SM CLR 20/03 A3023 RMK AO2

Idő: 16:32 (21:32 UTC)


TAF: hiányzik

Meteorológiai megfigyelések és előrejelzések több, mint 4000 repülőtéren (METAR és TAF jelentéseket).

A térképen piros és sárga pontok jelzik az elérhető meteorológiai állomásokat.

Mozgassa az egeret a pont fölött, hogy megjelenjen az állomás neve.

Azután kattintson az időjárási megfigyelések és előrejelzések megtekintéséhez.

A térkép megváltoztatása: kattintson a fekete keresztel jelölt zöld gombra ráközelítéshez, a vonallal jelölt zöld gombra távolításhoz, vagy a zöld nyilakra a szomszédos térképek eléréséhez.


METAR-TAF: